Weather Roundup
Issued by NWS Springfield, MO

Home | Current Version | Previous Version | Text Only | Print | Product List | Glossary On
Versions: 1 2 3 4 5 6 7 8 9 10 11 12 13 14 15 16 17 18 19 20 21 22 23 24 25 26 27 28 29 30 31 32 33 34 35 36 37 38 39 40 41 42 43 44 45 46 47 48 49 50
620
NZUS99 KSGF 241357
HRRSGF

HOURLY WEATHER
NATIONAL WEATHER SERVICE SPRINGFIELD MO
900 AM CDT WED AUG 24 2016

......SGF CWA......

CITY           SKY/WX    TMP DP  RH WIND       PRES   REMARKS
SPRINGFIELD    SUNNY     79  71  76 S17G24    30.07S
JOPLIN         CLOUDY    80  71  74 S17G24    30.04S
WEST PLAINS    SUNNY     79  73  82 SW9       30.15S
ROLLA          MOSUNNY   78  72  81 S12       30.06F
BRANSON        MOSUNNY   81  72  74 S8        30.12S

......SURROUNDING SGF CWA......

CITY           SKY/WX    TMP DP  RH WIND       PRES   REMARKS
CHANUTE        MOSUNNY   79  71  76 S14G23    30.01R
PARSONS        CLOUDY    79  72  79 S8        30.03R
COFFEYVILLE    SUNNY     80  71  74 S13       30.02R
EMPORIA        PTSUNNY   76  72  87 SE7       29.99F
HARRISON AR    SUNNY     81  72  74 S10G17    30.14R

......KANSAS AND MISSOURI......

CITY           SKY/WX    TMP DP  RH WIND       PRES   REMARKS
KANSAS CTY INT PTSUNNY   74  68  81 S14       29.97R
SEDALIA        CLOUDY    77  73  87 S12       30.01F
ST JOSEPH      MOSUNNY   73  68  84 S8        29.97R
ST LOUIS       CLOUDY    82  72  71 SW15      30.04S
WICHITA        LGT RAIN  75  68  78 S6        30.00R
TOPEKA         CLOUDY    78  71  79 S12       29.95R
OLATHE         CLOUDY    73  69  87 SW10      29.99R

......TENNESSEE......

CITY           SKY/WX    TMP DP  RH WIND       PRES   REMARKS
MEMPHIS        NOT AVBL
NASHVILLE      CLOUDY    79  70  74 S6        30.23S

......ARKANSAS.......

CITY           SKY/WX    TMP DP  RH WIND       PRES   REMARKS
FAYETTEVILLE   SUNNY     79  72  79 S17       30.12S
FT SMITH       SUNNY     83  72  69 VRB7      30.10R
LITTLE ROCK    MOSUNNY   84  76  76 S8        30.13F HX  93

......OKLAHOMA.......

CITY           SKY/WX    TMP DP  RH WIND       PRES   REMARKS
TULSA            N/A    N/A N/A N/A MISG      30.03R
PONCA CITY     CLOUDY    82  67  60 SW9G21    30.01R
MCALESTER      MOSUNNY   81  71  71 S9G18     30.10R
OKLAHOMA CITY  MOSUNNY   80  69  69 S21G28    30.05R

......IOWA............

CITY           SKY/WX    TMP DP  RH WIND       PRES   REMARKS
DES MOINES     NOT AVBL
QUAD CITIES    CLOUDY    74  71  91 S3        29.92F

......ILLINOIS........

CITY           SKY/WX    TMP DP  RH WIND       PRES   REMARKS
QUINCY         NOT AVBL
CHICAGO        LGT RAIN  71  69  93 S7        30.00F FOG




USA.gov is the U.S. government's official web portal to all federal, state and local government web resources and services.